Regional Weather Roundup
Issued by NWS

Home | Current Version | Previous Version | Graphics & Text | Print | Product List | Glossary Off
Versions: 1 2 3 4 5 6 7 8 9 10 11 12 13 14 15 16 17 18 19 20 21 22 23 24 25 26 27 28 29 30 31 32 33 34 35 36 37 38 39 40 41 42 43 44 45 46 47 48 49 50

000
ASUS43 KMKX 230900
RWRWI

WISCONSIN REGIONAL WEATHER ROUNDUP
NATIONAL WEATHER SERVICE MILWAUKEE/SULLIVAN WI
400 AM CDT SUN APR 23 2017

NOTE: "FAIR" INDICATES FEW OR NO CLOUDS BELOW 12,000 FEET WITH NO
SIGNIFICANT WEATHER AND/OR OBSTRUCTIONS TO VISIBILITY.

WIZ001-002-006>008-014>016-023>028-231000-
NORTHWEST WISCONSIN

CITY           SKY/WX    TMP DP  RH WIND       PRES   REMARKS
SUPERIOR ARPT  CLOUDY    43  38  84 NE8       30.13R
ASHLAND        CLOUDY    43  39  86 N15       30.12R
HAYWARD        CLOUDY    46  37  71 NE10      30.08R
SIREN          MOCLDY    48  38  66 NE7       30.08R
CUMBERLAND     PTCLDY    50  34  53 NW9G18    30.06R
RICE LAKE      PTCLDY    50  34  54 NW9       30.05S
CHETEK         PTCLDY    46  36  66 SW6       30.04S
LADYSMITH      CLOUDY    44  35  68 CALM      30.05R
EAU CLAIRE     NOT AVBL
MENOMONIE      CLOUDY    46  37  71 SW3       30.06S
NEW RICHMOND   PTCLDY    47  35  63 SW7       30.06S
OSCEOLA        CLOUDY    48  37  66 SW6       30.07S
$$

WIZ003>005-009-010-017-018-231000-
NORTH CENTRAL WISCONSIN

CITY           SKY/WX    TMP DP  RH WIND       PRES   REMARKS
MANITOWISH WTR MOCLDY    44  40  85 N7        30.04R
ARBOR VITAE    CLOUDY    42  33  73 CALM      30.02R
WOODRUFF       CLOUDY    42  33  73 CALM      30.02R
RHINELANDER    PTCLDY    48  34  58 NW6       30.03R
EAGLE RIVER    CLOUDY    41  33  72 N5        30.03R
LAND O LAKES   CLOUDY    42  36  80 NE3       30.04F
PHILLIPS       PTCLDY    42  33  70 CALM      30.03S
TOMAHAWK       PTCLDY    47  32  57 CALM      30.03S
MEDFORD        CLOUDY    47  34  59 SW5       30.04S
MERRILL        CLOUDY    45  34  65 SW6       30.04F
$$

WIZ029-030-035-036-043>047-231000-
CENTRAL WISCONSIN

CITY           SKY/WX    TMP DP  RH WIND       PRES   REMARKS
WAUSAU         CLOUDY    47  33  58 S6        30.03S
MOSINEE        CLOUDY    43  32  65 SW8       30.06F
MARSHFIELD     CLOUDY    45  31  58 SW7       30.05F
STEVENS POINT  CLOUDY    37  32  84 SW5       30.07S WCI  33
WAUPACA        PTCLDY    41  33  72 CALM      30.07S
WAUTOMA        CLEAR     34  31  88 CALM      30.09F
WISC RAPIDS    CLEAR     39  34  82 SW6       30.08S WCI  35
CAMP DOUGLAS   NOT AVBL
$$

WIZ011>013-019>022-031-037>040-048>050-231000-
NORTHEAST WISCONSIN

CITY           SKY/WX    TMP DP  RH WIND       PRES   REMARKS
ANTIGO         CLOUDY    44  33  67 W8        30.04S
SHAWANO        PTCLDY    45  32  60 CALM      30.05F
OCONTO         CLOUDY    47  32  56 W6        30.03F
STURGEON BAY   PTCLDY    52  32  46 SW12      30.03F
GREEN BAY      CLEAR     46  36  68 SW5       30.06S
MANITOWOC      NOT AVBL
APPLETON       CLEAR     45  30  57 SW10      30.06S
CLINTONVILLE   CLOUDY    45  30  57 W3        30.06S
OSHKOSH        CLEAR     48  31  51 SW6       30.07F
$$

WIZ032>034-041-042-053>061-231000-
SOUTHWEST WISCONSIN

CITY           SKY/WX    TMP DP  RH WIND       PRES   REMARKS
LA CROSSE      CLEAR     47  40  76 S7        30.10S
SPARTA         CLEAR     32  31  96 CALM      30.10F
VIROQUA        CLEAR     46  29  52 SW5       30.11S
BOSCOBEL       CLEAR     36  33  89 CALM      30.13S
PRAIRIE DU CHI CLEAR     39  33  78 CALM      30.13S
PLATTEVILLE    CLEAR     46  32  58 CALM      30.14R
$$

WIZ056-057-062-063-064-067-068-231000-
SOUTH CENTRAL WISCONSIN

CITY           SKY/WX    TMP DP  RH WIND       PRES   REMARKS
REEDSBURG      CLEAR     37  36  96 CALM      30.11S
BARABOO/DELLS  CLEAR     42  30  62 CALM      30.10F
LONE ROCK      NOT AVBL
MINERAL POINT  CLEAR     46  28  49 CALM      30.13R
MADISON        CLEAR     39  34  82 SE3       30.12S
MIDDLETON      CLEAR     38  33  82 CALM      30.12S
WATERTOWN      CLEAR     35  33  90 CALM      30.11S
MONROE         CLEAR     46  28  49 SW8       30.13S
JANESVILLE     CLEAR     37  34  87 CALM      30.13S
$$

WIZ051-052-058>065-066-070>072-231000-
SOUTHEAST WISCONSIN

CITY           SKY/WX    TMP DP  RH WIND       PRES   REMARKS
MILWAUKEE      CLEAR     48  24  39 W3        30.12R
WAUKESHA       CLEAR     34  28  80 CALM      30.13S
MILWAUKEE/TIMM CLEAR     37  28  70 CALM      30.12S
RACINE         CLEAR     37  29  72 W6        30.13S WCI  32
KENOSHA        CLEAR     35  30  82 W5        30.12S WCI  31
FOND DU LAC    CLEAR     47  31  53 SW9       30.09S
SHEBOYGAN      CLEAR     42  29  59 SW6       30.08F
WEST BEND      CLEAR     39  32  75 SW3       30.10F
JUNEAU         CLEAR     41  32  71 CALM      30.12S
$$

LSZ147-162-231000-
LAKE SUPERIOR

STATION/POSITION TIME  TEMP    WIND        PRES    WAVE
                       AIR SEA DIR/SP/G            HT/PER
                 (UTC) (F)     (DEG/KT/KT) (MB)    (FT/S)
DEVILS ISLAND    0800   39     360/ 19/ 20 1021.0R
PORT WING        0800   41     360/ 15/ 18 1020.0R
SAXON HARBOR     0830   41      20/  8/ 11 1019.6R
$$

LMZ867-665-643>646-231000-
LAKE MICHIGAN

STATION/POSITION TIME  TEMP    WIND        PRES    WAVE
                       AIR SEA DIR/SP/G            HT/PER
                 (UTC) (F)     (DEG/KT/KT) (MB)    (FT/S)
CHAMBERS ISLAND  0840   47     200/  3/  9 1015.9S
N MID LAKE BUOY  0750   42 37  250/  4/  6 1017.9R   2/ 4
NORTHPORT PIER   0840   48     280/  8/ 14 1016.6R
SISTER BAY       0806   52     250/ 13/ 16   N/A
KEWAUNEE LAKESHO 0830   49     260/ 10/ 13 1017.0F
SHEBOYGAN LAKESH 0800   49     250/ 12/ 13 1018.9F
PORT WASHINGTON  0830   48     280/  4/  7 1020.3S
MILWAUKEE LAKESH 0830   51     300/  4/  5   N/A
KENOSHA   LAKESH 0800   47     250/  2/  4 1020.0
$$

TC  - TEMPERATURE IN CELSIUS
VSB - VISIBILITY IN STATUTE MILES
WCI - WIND CHILL INDEX
HX  - HEAT INDEX





USA.gov is the U.S. government's official web portal to all federal, state and local government web resources and services.